Погода в Золотово

Россия / Московская область     55°25′49″N   38°30′32″E
темп.,
°C
ветер,
м/с
пор.,
м/с
влажн.,
%
обл.,
%
осадки,
мм/ч
давл.,
гПа
погр.,
м
26 февраля, пт
пт2600:00+1зюз4799100 0.1 1013198
03:00+2зюз410100100 0.8 1012275
06:00+3зюз512100100 1.8 1009330
09:00+3зюз51399100 1.8 1006405
12:00+3з61599100 0.3 1004494
15:00+3з71699100 0.6 1003640
18:00+2з61587100 0.1 1003923
21:00+2з7158691 0.1 1002981
27 февраля, сб
сб2700:00+1зсз7158696 0.0 1001831
03:00+1з8158994 0.1 1001816
06:00+1зсз8159691 0.1 1001936
09:00−4ссз7138596 0.5 1004758
12:00−6ссз51084100 0.0 1006607
15:00−5ссз598378 0.0 1008669
18:00−7ссз389080 0.0 1010332
21:00−10с399241 0.0 1013335
28 февраля, вс
вс2800:00−11ссз369418 0.0 1014182
03:00−12ссз259423 0.0 1016140
06:00−11с269444 0.0 1016266
09:00−10с259263 0.2 1017313
12:00−7ссз358791 0.1 1018502
15:00−4ссз358696 0.1 1018644
18:00−5ссз2695100 0.1 1019248
21:00−6ссз1296100 0.2 102170
1 марта, пн
пн100:00−8ссв129694 0.0 102221
03:00−9ссв009796 0.1 102421
06:00−9ю1196100 0.1 102421
09:00−7ююв119598 0.1 102533
12:00−3ююз118787 0.0 1026348
15:00−2юз238886 0.0 1026476
18:00−3зюз2690100 0.0 1025201
21:00−4зюз499390 0.0 1025263
2 марта, вт
вт200:00−1зюз51192100 0.0 1022434
03:000з61293100 0.1 1020497
06:00+1з61292100 0.0 1017531
09:00+1зсз61295100 0.0 1015849
12:00+1сз61296100 0.2 1015981
15:00+1сз6128695 0.3 10161111
18:000сз51285100 0.1 10171014
21:000сз51286100 0.1 1018982